104P/Kowal 2 (2004)

Japanese version
Home page
Total 6,336 html files since Dec. 4, 1995
Updated on March 9, 2004

---------------------------------------------------------------------

* Profile

* Orbital Elements

Epoch 2004 Apr. 25.0 TT = JDT 2453120.5
T 2004 May  9.19293 TT                                  MPC
q   1.3959496            (2000.0)            P               Q
n   0.15952253     Peri.  192.04350     +0.21263870     -0.94614024
a   3.3670898      Node   246.08540     +0.91720693     +0.27941863
e   0.5854136      Incl.   15.48972     +0.33692170     -0.16353554
P   6.18
>From 93 observations 1997 May 14-June 7 and 1997 Nov. 24-2003 Sept. 28, mean
   residual 0".66.

* Finding Charts

* Magnitudes Graph

        m1 = 12.2 + 5 log d + 16.5 log r

        * Gray curve is:  m1 = 10.3 + 5 log d + 12.5 log r

---------------------------------------------------------------------

The orbital elements are published at the MPC Ephemerides and Orbital Elements.
The charts are made with StellaNavigator Ver.2.0 for Windows (AstroArts / ASCII).
The magnitudes graphs are made with Comet for Windows.

---------------------------------------------------------------------

Copyright(C) 1995-2008 Seiichi Yoshida (comet@aerith.net). All rights reserved.